Retour au catalogue

STARLINK-3138

ActifCommunicationsVLEO
NORAD 49430·PAYLOAD·🇺🇸 United States

Lancé Nov 13, 2021 depuis Cape Canaveral Space Force Station

Loading…

Prochains Passages (prochaines 24 heures)

TLE

FraisSource: CelesTrak SupGP

Époque: Sep 14, 2026, 20:02 UTC

1 49430C 21104Y   26257.83520833 -.00008062  00000+0 -23828-3 0  2572
2 49430  53.1574  87.8467 0001099  76.9706   5.5494 15.34385152    16

Suivez STARLINK-3138 en temps réel avec AllMySat

Download on the App Store